When you browse on this site, cookies collect data to enhance your experience and personalize the content and advertising you see.
Visit our Privacy Policy to learn more. By continuing to use the site, you agree to this use of cookies and data.
  • In Sweden
  • List of Countries
  • For 7 days
  • Water Temperature
  • Weather Map
  • Weather Widgets
  • user-avatar
    Login

    Hourly Weather Lipovec

    Today, 25 August, Sunday

    Time Temperature Precipitation Wind Pressure Humidity
    00:00 +17°C° 0 mm 3 mps 745 mmHg 65%
    01:00 +17°C° 0 mm 3 mps 745 mmHg 66%
    02:00 +16°C° 0 mm 3 mps 745 mmHg 67%
    03:00 +16°C° 0 mm 3 mps 745 mmHg 69%
    04:00 +16°C° 0 mm 3 mps 745 mmHg 71%
    05:00 +14°C° 0 mm 3 mps 745 mmHg 73%
    06:00 +17°C° 0 mm 3 mps 745 mmHg 69%
    07:00 +19°C° 0 mm 3 mps 746 mmHg 65%
    08:00 +20°C° 0 mm 3 mps 746 mmHg 60%
    09:00 +22°C° 0 mm 3 mps 746 mmHg 55%
    10:00 +25°C° 0 mm 3 mps 746 mmHg 49%
    11:00 +26°C° 0 mm 3 mps 746 mmHg 43%
    12:00 +27°C° 0 mm 3 mps 746 mmHg 41%
    13:00 +28°C° 0 mm 3 mps 746 mmHg 39%
    14:00 +28°C° 0 mm 3 mps 746 mmHg 37%
    15:00 +28°C° 0 mm 3 mps 745 mmHg 38%
    16:00 +27°C° 0 mm 4 mps 745 mmHg 39%
    17:00 +27°C° 0 mm 4 mps 745 mmHg 40%
    18:00 +25°C° 0 mm 3 mps 745 mmHg 44%
    19:00 +22°C° 0 mm 3 mps 745 mmHg 47%
    20:00 +20°C° 0 mm 3 mps 745 mmHg 50%
    21:00 +19°C° 0 mm 3 mps 745 mmHg 52%
    22:00 +18°C° 0 mm 3 mps 745 mmHg 53%
    23:00 +18°C° 0 mm 3 mps 745 mmHg 55%

    Tomorrow, 26 August, Monday

    Time Temperature Precipitation Wind Pressure Humidity
    00:00 +17°C° 0 mm 3 mps 746 mmHg 59%
    01:00 +17°C° 0 mm 3 mps 746 mmHg 63%
    02:00 +16°C° 0 mm 3 mps 746 mmHg 67%
    03:00 +16°C° 0 mm 3 mps 746 mmHg 71%
    04:00 +14°C° 0 mm 3 mps 745 mmHg 75%
    05:00 +15°C° 0 mm 2 mps 745 mmHg 79%
    06:00 +17°C° 0 mm 3 mps 746 mmHg 74%
    07:00 +19°C° 0 mm 3 mps 746 mmHg 70%
    08:00 +21°C° 0 mm 3 mps 746 mmHg 65%
    09:00 +24°C° 0 mm 3 mps 746 mmHg 57%
    10:00 +26°C° 0 mm 3 mps 746 mmHg 50%
    11:00 +27°C° 0 mm 3 mps 746 mmHg 42%
    12:00 +28°C° 0 mm 3 mps 746 mmHg 40%
    13:00 +29°C° 0 mm 3 mps 746 mmHg 38%
    14:00 +30°C° 0 mm 3 mps 745 mmHg 36%
    15:00 +29°C° 0 mm 3 mps 745 mmHg 37%
    16:00 +29°C° 0 mm 3 mps 745 mmHg 38%
    17:00 +29°C° 0 mm 3 mps 744 mmHg 40%
    18:00 +27°C° 0 mm 3 mps 744 mmHg 47%
    19:00 +24°C° 0 mm 3 mps 744 mmHg 54%
    20:00 +21°C° 0 mm 3 mps 744 mmHg 61%
    21:00 +20°C° 0 mm 3 mps 744 mmHg 62%
    22:00 +20°C° 0 mm 3 mps 744 mmHg 64%
    23:00 +19°C° 0 mm 3 mps 745 mmHg 66%

    Day after tomorrow, 27 August, Tuesday

    Time Temperature Precipitation Wind Pressure Humidity
    00:00 +18°C° 0 mm 2 mps 744 mmHg 67%
    01:00 +18°C° 0 mm 2 mps 744 mmHg 68%
    02:00 +17°C° 0 mm 2 mps 744 mmHg 69%
    03:00 +18°C° 0 mm 1 mps 744 mmHg 70%
    04:00 +16°C° 0 mm 1 mps 744 mmHg 71%
    05:00 +16°C° 0 mm 1 mps 744 mmHg 72%
    06:00 +19°C° 0 mm 1 mps 744 mmHg 65%
    07:00 +21°C° 0 mm 1 mps 744 mmHg 59%
    08:00 +23°C° 0 mm 2 mps 745 mmHg 53%
    09:00 +25°C° 0 mm 2 mps 745 mmHg 48%
    10:00 +26°C° 0 mm 2 mps 745 mmHg 44%
    11:00 +28°C° 0 mm 2 mps 745 mmHg 40%
    12:00 +28°C° 0 mm 2 mps 744 mmHg 38%
    13:00 +29°C° 0 mm 3 mps 744 mmHg 36%
    14:00 +30°C° 0 mm 3 mps 744 mmHg 34%
    15:00 +29°C° 0 mm 3 mps 744 mmHg 35%
    16:00 +29°C° 0 mm 3 mps 744 mmHg 37%
    17:00 +28°C° 0 mm 4 mps 743 mmHg 39%
    18:00 +26°C° 0 mm 3 mps 743 mmHg 45%
    19:00 +24°C° 0 mm 3 mps 743 mmHg 52%
    20:00 +20°C° 0 mm 2 mps 743 mmHg 59%
    21:00 +20°C° 0 mm 2 mps 744 mmHg 60%
    22:00 +19°C° 0 mm 2 mps 744 mmHg 62%
    23:00 +18°C° 0 mm 2 mps 744 mmHg 63%

    28 August, Wednesday

    Time Temperature Precipitation Wind Pressure Humidity
    00:00 +18°C° 0 mm 2 mps 744 mmHg 66%
    01:00 +17°C° 0 mm 2 mps 744 mmHg 68%
    02:00 +17°C° 0 mm 2 mps 744 mmHg 71%
    03:00 +16°C° 0 mm 1 mps 744 mmHg 72%
    04:00 +16°C° 0 mm 1 mps 744 mmHg 74%
    05:00 +16°C° 0 mm 1 mps 744 mmHg 76%
    06:00 +19°C° 0 mm 1 mps 744 mmHg 70%
    07:00 +20°C° 0 mm 2 mps 744 mmHg 64%
    08:00 +23°C° 0 mm 2 mps 744 mmHg 57%
    09:00 +24°C° 0 mm 2 mps 744 mmHg 53%
    10:00 +26°C° 0 mm 2 mps 744 mmHg 49%
    11:00 +27°C° 0 mm 3 mps 744 mmHg 45%
    12:00 +28°C° 0 mm 3 mps 744 mmHg 44%
    13:00 +28°C° 0 mm 3 mps 743 mmHg 42%
    14:00 +29°C° 0 mm 3 mps 743 mmHg 41%
    15:00 +28°C° 0 mm 4 mps 743 mmHg 43%
    16:00 +28°C° 0 mm 4 mps 743 mmHg 45%
    17:00 +27°C° 0 mm 4 mps 743 mmHg 47%
    18:00 +25°C° 0 mm 4 mps 743 mmHg 53%
    19:00 +22°C° 0 mm 4 mps 743 mmHg 58%
    20:00 +20°C° 0 mm 4 mps 743 mmHg 64%
    21:00 +19°C° 0 mm 4 mps 743 mmHg 62%
    22:00 +18°C° 0 mm 3 mps 743 mmHg 60%
    23:00 +17°C° 0 mm 3 mps 743 mmHg 58%

    29 August, Thursday

    Time Temperature Precipitation Wind Pressure Humidity
    00:00 +17°C° 0 mm 3 mps 743 mmHg 61%
    01:00 +16°C° 0 mm 3 mps 743 mmHg 63%
    02:00 +14°C° 0 mm 3 mps 743 mmHg 66%
    03:00 +14°C° 0 mm 3 mps 743 mmHg 65%
    04:00 +13°C° 0 mm 3 mps 743 mmHg 65%
    05:00 +13°C° 0 mm 3 mps 743 mmHg 65%
    06:00 +14°C° 0 mm 3 mps 743 mmHg 61%
    07:00 +15°C° 0 mm 4 mps 743 mmHg 57%
    08:00 +17°C° 0 mm 4 mps 743 mmHg 54%
    09:00 +19°C° 0 mm 4 mps 744 mmHg 48%
    10:00 +21°C° 0 mm 4 mps 744 mmHg 42%
    11:00 +22°C° 0 mm 5 mps 744 mmHg 36%
    12:00 +23°C° 0 mm 4 mps 744 mmHg 34%
    13:00 +25°C° 0 mm 4 mps 744 mmHg 31%
    14:00 +25°C° 0 mm 4 mps 744 mmHg 28%
    15:00 +25°C° 0 mm 4 mps 743 mmHg 29%
    16:00 +23°C° 0 mm 4 mps 743 mmHg 29%
    17:00 +22°C° 0 mm 5 mps 743 mmHg 30%
    18:00 +20°C° 0 mm 4 mps 743 mmHg 34%
    19:00 +18°C° 0 mm 4 mps 743 mmHg 38%
    20:00 +14°C° 0 mm 3 mps 743 mmHg 42%
    21:00 +13°C° 0 mm 3 mps 743 mmHg 44%
    22:00 +13°C° 0 mm 3 mps 744 mmHg 45%
    23:00 +12°C° 0 mm 3 mps 744 mmHg 46%

    30 August, Friday

    Time Temperature Precipitation Wind Pressure Humidity
    00:00 +11°C° 0 mm 3 mps 744 mmHg 48%
    01:00 +11°C° 0 mm 3 mps 744 mmHg 50%
    02:00 +10°C° 0 mm 3 mps 744 mmHg 52%
    03:00 +9°C° 0 mm 3 mps 744 mmHg 57%
    04:00 +9°C° 0 mm 2 mps 744 mmHg 61%
    05:00 +8°C° 0 mm 2 mps 744 mmHg 66%
    06:00 +10°C° 0 mm 3 mps 744 mmHg 59%
    07:00 +12°C° 0 mm 3 mps 744 mmHg 53%
    08:00 +14°C° 0 mm 3 mps 745 mmHg 46%
    09:00 +17°C° 0 mm 3 mps 745 mmHg 41%
    10:00 +19°C° 0 mm 3 mps 745 mmHg 36%
    11:00 +21°C° 0 mm 3 mps 745 mmHg 30%
    12:00 +22°C° 0 mm 3 mps 745 mmHg 28%
    13:00 +24°C° 0 mm 3 mps 744 mmHg 26%
    14:00 +25°C° 0 mm 3 mps 744 mmHg 24%
    15:00 +24°C° 0 mm 3 mps 744 mmHg 25%
    16:00 +24°C° 0 mm 3 mps 744 mmHg 25%
    17:00 +24°C° 0 mm 3 mps 743 mmHg 26%
    18:00 +20°C° 0 mm 3 mps 743 mmHg 31%
    19:00 +18°C° 0 mm 3 mps 743 mmHg 37%
    20:00 +14°C° 0 mm 3 mps 743 mmHg 42%
    21:00 +14°C° 0 mm 2 mps 743 mmHg 44%
    22:00 +14°C° 0 mm 2 mps 743 mmHg 46%
    23:00 +13°C° 0 mm 2 mps 744 mmHg 47%
    Show more